Danville, VA

11:03 AM EST on February 24, 2017 (GMT -0500)
Danville Regional

Weather History for KDAN - December, 2013

Change the Weather History Date:

Sunday, December 8, 2013

  Actual Average Record
Temperature  
Mean Temperature 36 °F 42 °F  
Max Temperature 40 °F 51 °F 77 °F (1956)
Min Temperature 32 °F 32 °F 10 °F (1954)
Degree Days  
Heating Degree Days 29 23  
Month to date heating degree days 128 179  
Since 1 July heating degree days 876 888  
Cooling Degree Days 0 0  
Month to date cooling degree days 1 0  
Year to date cooling degree days 1414 1439  
Moisture  
Dew Point 29 °F    
Average Humidity 74    
Maximum Humidity 89    
Minimum Humidity 59    
Precipitation  
Precipitation 0.06 in 0.11 in 1.80 in (1974)
Month to date precipitation 0.22 0.93  
Year to date precipitation 46.77 42.07  
Snow  
Snow 0.00 in - - ()
Month to date snowfall 0.0  
Since 1 July snowfall T  
Snow Depth 0.00 in    
Sea Level Pressure  
Sea Level Pressure 30.41 in    
Wind  
Wind Speed 7 mph (NE)    
Max Wind Speed 14 mph    
Max Gust Speed 20 mph    
Visibility 7 miles    
Events Rain    
T = Trace of Precipitation, MM = Missing Value Source: NWS Daily Summary

Daily Weather History Graph

Daily Weather History Graph

Search for Another Location

Airport or City:

Trip Planner

Search our weather history database for the weather conditions in past years. The results will help you decide how hot, cold, wet, or windy it might be!

Date:

Astronomy

Dec. 08, 2013 Rise Set
Actual Time 7:17 AM EST 5:01 PM EST
Civil Twilight 6:48 AM EST 5:30 PM EST
Nautical Twilight 6:16 AM EST 6:02 PM EST
Astronomical Twilight 5:44 AM EST 6:33 PM EST
Moon 11:44 AM EST (12/8) 11:40 PM EST (12/8)
Length of Visible Light 10h 41m
Length of Day
9h 44m
Waxing Crescent, 40% of the Moon is Illuminated
Dec 8
Waxing Crescent
Dec 9
First Quarter
Dec 17
Full
Dec 25
Last Quarter
Jan 1
New

Hourly Weather History & Observations

Time (EST) Temp. Windchill Dew Point Humidity Pressure Visibility Wind Dir Wind Speed Gust Speed Precip Events Conditions
12:53 AM 39.9 °F 34.5 °F 28.0 °F 63% 30.45 in 10.0 mi East 8.1 mph - 0.01 in   Overcast
1:53 AM 39.0 °F 34.0 °F 27.0 °F 62% 30.45 in 10.0 mi ENE 6.9 mph - N/A   Overcast
2:53 AM 37.9 °F 32.1 °F 26.1 °F 62% 30.44 in 10.0 mi ENE 8.1 mph - N/A   Overcast
3:53 AM 37.9 °F 31.5 °F 25.0 °F 60% 30.44 in 10.0 mi NE 9.2 mph - 0.01 in   Overcast
4:53 AM 37.0 °F 29.3 °F 25.0 °F 62% 30.45 in 10.0 mi NE 11.5 mph - N/A   Overcast
5:53 AM 35.1 °F 28.6 °F 27.0 °F 72% 30.44 in 10.0 mi ENE 8.1 mph - 0.00 in Rain Light Rain
6:53 AM 34.0 °F 26.0 °F 28.0 °F 79% 30.47 in 10.0 mi NNE 10.4 mph - 0.01 in   Overcast
7:53 AM 33.1 °F 24.9 °F 26.1 °F 75% 30.49 in 10.0 mi NE 10.4 mph - 0.00 in   Overcast
8:40 AM 32.0 °F 23.6 °F 26.6 °F 80% 30.49 in 6.0 mi NE 10.4 mph - 0.00 in Rain Light Freezing Rain
8:53 AM 32.0 °F 23.6 °F 27.0 °F 82% 30.47 in 10.0 mi ENE 10.4 mph 19.6 mph 0.00 in Rain Light Freezing Rain
9:08 AM 32.0 °F 23.6 °F 26.6 °F 80% 30.47 in 7.0 mi ENE 10.4 mph - 0.00 in   Overcast
9:20 AM 32.0 °F 23.6 °F 28.4 °F 87% 30.48 in 5.0 mi ENE 10.4 mph - 0.00 in   Overcast
9:53 AM 32.0 °F 24.2 °F 28.0 °F 85% 30.47 in 10.0 mi ENE 9.2 mph - 0.00 in   Overcast
10:46 AM 33.8 °F 27.0 °F 28.4 °F 81% 30.47 in 5.0 mi ENE 8.1 mph - 0.01 in Rain Light Freezing Rain
10:53 AM 32.0 °F 24.8 °F 28.9 °F 88% 30.48 in 5.0 mi NE 8.1 mph - 0.01 in Rain Light Freezing Rain
11:24 AM 33.8 °F 27.0 °F 28.4 °F 81% 30.46 in 2.0 mi ENE 8.1 mph - 0.00 in Rain Light Freezing Rain
11:41 AM 33.8 °F 27.0 °F 28.4 °F 81% 30.47 in 4.0 mi NE 8.1 mph - 0.00 in Rain Light Freezing Rain
11:53 AM 33.1 °F 25.5 °F 30.0 °F 89% 30.46 in 4.0 mi NNE 9.2 mph - 0.00 in Rain Light Freezing Rain
12:53 PM 33.1 °F 25.5 °F 28.9 °F 85% 30.42 in 6.0 mi NE 9.2 mph - 0.00 in Rain Light Freezing Rain
1:14 PM 32.0 °F 25.6 °F 28.4 °F 87% 30.44 in 10.0 mi NNE 6.9 mph - 0.00 in   Overcast
1:32 PM 33.8 °F 27.0 °F 28.4 °F 81% 30.42 in 7.0 mi NE 8.1 mph - 0.00 in Rain Light Rain
1:42 PM 33.8 °F 27.7 °F 30.2 °F 87% 30.41 in 4.0 mi ENE 6.9 mph - 0.00 in   Overcast
1:53 PM 33.1 °F 25.5 °F 30.0 °F 89% 30.40 in 3.0 mi NE 9.2 mph - 0.00 in Rain Light Rain
2:53 PM 33.1 °F 27.7 °F 30.0 °F 89% 30.39 in 4.0 mi NE 5.8 mph - 0.00 in   Overcast
3:21 PM 33.8 °F 29.6 °F 30.2 °F 87% 30.40 in 5.0 mi NNE 4.6 mph - N/A   Overcast
3:40 PM 33.8 °F 27.7 °F 30.2 °F 87% 30.39 in 8.0 mi NE 6.9 mph - N/A   Overcast
3:53 PM 33.1 °F 27.7 °F 30.0 °F 89% 30.38 in 6.0 mi NE 5.8 mph - N/A   Overcast
4:53 PM 33.1 °F 26.9 °F 30.0 °F 89% 30.38 in 10.0 mi NNE 6.9 mph - N/A   Overcast
5:53 PM 33.1 °F 27.7 °F 30.0 °F 89% 30.37 in 10.0 mi ENE 5.8 mph - 0.01 in   Overcast
6:00 PM 33.8 °F 28.6 °F 30.2 °F 87% 30.38 in 10.0 mi NE 5.8 mph - N/A   Overcast
6:53 PM 33.1 °F 30.0 °F 30.9 °F 92% 30.37 in 5.0 mi ENE 3.5 mph - N/A   Overcast
7:53 PM 33.1 °F 30.0 °F 30.9 °F 92% 30.37 in 7.0 mi NE 3.5 mph - N/A   Overcast
8:53 PM 33.1 °F - 30.9 °F 92% 30.35 in 10.0 mi Calm Calm - N/A   Overcast
9:53 PM 33.1 °F 26.9 °F 30.9 °F 92% 30.35 in 5.0 mi NNW 6.9 mph - N/A   Overcast
10:53 PM 33.1 °F 30.0 °F 30.9 °F 92% 30.32 in 4.0 mi NNW 3.5 mph - N/A   Overcast
11:08 PM 33.8 °F 30.8 °F 30.2 °F 87% 30.32 in 5.0 mi NNW 3.5 mph - N/A   Overcast
11:15 PM 33.8 °F 30.8 °F 30.2 °F 87% 30.32 in 5.0 mi NNW 3.5 mph - N/A   Overcast
11:27 PM 33.8 °F - 30.2 °F 87% 30.32 in 4.0 mi Calm Calm - N/A   Overcast
11:53 PM 33.1 °F - 30.0 °F 89% 30.30 in 8.0 mi Calm Calm - 0.01 in   Overcast